M0TJX-1 Weather Reports


time (UTC)temp
C
wind
direction
speed
KPH
gust
KPH
rain 1hr
cm
rain 24hr
cm
rain mn
cm
humidity
%
barometer
mb
20260508054310 8 20 0.0 3.2 0.00 0.05 0.00 89 1015.2
20260508052810 8 35 0.0 1.6 0.00 0.05 0.00 88 1015.2
20260508051310 8 35 0.0 3.2 0.00 0.05 0.00 88 1015.2
20260508045810 8 35 0.0 0.0 0.00 0.05 0.00 88 1015.2
20260508044310 8 35 0.0 0.0 0.00 0.05 0.00 87 1015.1
20260508042810 8 35 0.0 3.2 0.00 0.05 0.00 87 1015.1
20260508041310 8 35 0.0 3.2 0.00 0.05 0.00 87 1015.0
20260508035810 9 35 0.0 4.8 0.00 0.05 0.00 87 1015.2
20260508034310 9 69 0.0 0.0 0.00 0.05 0.00 86 1015.3
20260508032810 9 69 0.0 0.0 0.00 0.05 0.00 85 1015.2
20260508031310 9 68 0.0 0.0 0.00 0.05 0.00 84 1015.3
20260508025810 9 125 1.6 4.8 0.00 0.05 0.00 84 1015.3
20260508024310 9 123 1.6 4.8 0.00 0.05 0.00 84 1015.3
20260508022810 9 146 3.2 11.3 0.00 0.05 0.00 83 1015.2
20260508021310 9 131 1.6 6.4 0.00 0.05 0.00 82 1015.3
20260508015811 9 134 3.2 8.0 0.00 0.05 0.00 81 1015.3
20260508014311 9 138 1.6 4.8 0.00 0.05 0.00 81 1015.2
20260508012811 9 103 1.6 6.4 0.00 0.05 0.00 80 1015.3
20260508011311 9 105 1.6 4.8 0.00 0.05 0.00 80 1015.3
20260508005811 9 141 3.2 6.4 0.00 0.05 0.00 79 1015.3
20260508004311 10 135 3.2 8.0 0.00 0.05 0.00 79 1015.4
20260508002811 10 148 1.6 11.3 0.00 0.05 0.00 78 1015.3
20260508001311 10 112 1.6 9.7 0.00 0.05 0.00 77 1015.4
20260507235811 10 117 1.6 4.8 0.00 0.05 0.05 76 1015.6
20260507234311 10 126 0.0 0.0 0.00 0.05 0.05 77 1015.7
20260507232811 10 126 0.0 1.6 0.00 0.05 0.05 77 1015.6
20260507231311 10 126 1.6 4.8 0.00 0.05 0.05 76 1015.6
20260507225811 10 126 0.0 4.8 0.00 0.05 0.05 77 1015.7
20260507224311 10 126 0.0 1.6 0.00 0.05 0.05 77 1015.7
20260507222811 10 126 0.0 1.6 0.00 0.05 0.05 77 1015.8
20260507221311 10 125 0.0 3.2 0.00 0.05 0.05 78 1015.8
20260507215811 10 125 1.6 3.2 0.00 0.05 0.05 76 1015.8
20260507214311 10 125 0.0 6.4 0.00 0.05 0.05 78 1015.7
20260507212811 10 127 0.0 3.2 0.00 0.05 0.05 79 1015.7
20260507211311 10 127 0.0 1.6 0.00 0.05 0.05 82 1015.5
20260507205811 10 127 0.0 0.0 0.00 0.05 0.05 84 1015.3
20260507204311 10 127 0.0 0.0 0.00 0.05 0.05 84 1015.3
20260507202811 10 127 0.0 0.0 0.00 0.05 0.05 83 1015.1
20260507201311 10 127 0.0 0.0 0.00 0.05 0.05 82 1015.1
20260507195811 11 127 0.0 0.0 0.00 0.05 0.05 82 1015.1
20260507194311 11 127 0.0 0.0 0.00 0.05 0.05 80 1014.9
20260507192811 11 127 0.0 0.0 0.00 0.05 0.05 79 1014.8
20260507191311 11 127 0.0 3.2 0.00 0.05 0.05 79 1014.8
20260507185811 11 127 0.0 0.0 0.00 0.05 0.05 80 1014.8
20260507184311 11 127 0.0 1.6 0.00 0.05 0.05 80 1014.7
20260507182811 11 136 0.0 1.6 0.00 0.05 0.05 80 1014.6
20260507181311 11 136 0.0 3.2 0.00 0.05 0.05 80 1014.7
20260507175811 11 136 0.0 3.2 0.00 0.05 0.05 81 1014.6
20260507174311 11 136 0.0 4.8 0.00 0.05 0.05 82 1014.8
20260507172811 11 126 1.6 4.8 0.00 0.05 0.05 84 1014.9
20260507171311 11 34 0.0 3.2 0.00 0.05 0.05 88 1014.8
20260507165811 11 34 0.0 1.6 0.00 0.05 0.05 89 1014.8
20260507164311 11 34 0.0 0.0 0.00 0.05 0.05 89 1014.8
20260507162811 11 34 0.0 1.6 0.03 0.05 0.05 89 1014.8
20260507161311 11 34 1.6 4.8 0.05 0.05 0.05 88 1014.9
20260507155811 12 34 1.6 4.8 0.05 0.05 0.05 88 1014.9
20260507154311 12 37 1.6 4.8 0.05 0.05 0.05 86 1014.8
20260507152811 12 304 0.0 3.2 0.03 0.03 0.03 84 1015.0
20260507151311 12 111 0.0 0.0 0.00 0.00 0.00 80 1015.1
20260507145811 13 111 0.0 0.0 0.00 0.00 0.00 76 1015.0
20260507144311 13 111 1.6 4.8 0.00 0.00 0.00 71 1015.1
20260507142811 13 97 4.8 9.7 0.00 0.00 0.00 67 1015.2
20260507141311 13 121 1.6 9.7 0.00 0.00 0.00 64 1015.3
20260507135811 14 250 1.6 8.0 0.00 0.00 0.00 62 1015.2
20260507134311 14 113 1.6 6.4 0.00 0.00 0.00 63 1015.2
20260507132811 14 136 3.2 11.3 0.00 0.00 0.00 61 1015.1
20260507131311 14 101 4.8 11.3 0.00 0.00 0.00 60 1015.1
20260507125811 15 121 4.8 12.9 0.00 0.00 0.00 58 1015.2
20260507124311 15 137 3.2 6.4 0.00 0.00 0.00 58 1015.2
20260507122811 15 106 4.8 9.7 0.00 0.00 0.00 61 1015.3
20260507121311 14 209 4.8 11.3 0.00 0.00 0.00 61 1015.3
20260507115811 14 123 4.8 9.7 0.00 0.00 0.00 61 1015.4
20260507114312 14 149 3.2 11.3 0.00 0.00 0.00 61 1015.6
20260507112812 15 132 4.8 12.9 0.00 0.00 0.00 60 1015.5
20260507111312 16 191 3.2 11.3 0.00 0.00 0.00 60 1015.5
20260507105812 16 105 3.2 8.0 0.00 0.00 0.00 61 1015.5
20260507104312 15 126 3.2 9.7 0.00 0.00 0.00 60 1015.8
20260507102812 14 122 3.2 12.9 0.00 0.00 0.00 66 1015.8
20260507101312 13 140 3.2 4.8 0.00 0.00 0.00 73 1015.7
20260507095812 12 159 1.6 6.4 0.00 0.00 0.00 76 1015.7
20260507094312 12 159 1.6 6.4 0.00 0.00 0.00 77 1016.0
20260507092812 11 138 3.2 8.0 0.00 0.00 0.00 79 1016.0
20260507091312 10 48 3.2 6.4 0.00 0.00 0.00 81 1015.8
20260507085812 10 129 1.6 4.8 0.00 0.00 0.00 84 1016.1
20260507084312 8 148 3.2 6.4 0.00 0.00 0.00 86 1016.1
20260507082812 8 159 1.6 8.0 0.00 0.00 0.00 87 1016.0
20260507081312 7 128 1.6 4.8 0.00 0.00 0.00 88 1015.9
20260507075812 7 109 1.6 6.4 0.00 0.00 0.00 88 1015.9
20260507074312 7 91 1.6 4.8 0.00 0.00 0.00 89 1015.9
20260507072812 7 167 1.6 4.8 0.00 0.00 0.00 89 1015.9
20260507071312 7 110 1.6 6.4 0.00 0.00 0.00 89 1015.8
20260507065812 6 50 0.0 3.2 0.00 0.00 0.00 90 1015.7
20260507064312 6 86 0.0 4.8 0.00 0.00 0.00 90 1015.5
20260507062812 6 148 1.6 3.2 0.00 0.00 0.00 90 1015.4
20260507061312 6 340 1.6 3.2 0.00 0.00 0.00 91 1015.5
20260507055812 6 11 1.6 4.8 0.00 0.00 0.00 91 1015.3